Kahului, HI

9:09 PM HST on February 13, 2016 (GMT -1000)
Kahului

Weather History for PHOG - February, 2014

Change the Weather History Date:

Saturday, February 8, 2014

  Actual Average Record
Temperature  
Mean Temperature 77 °F 72 °F  
Max Temperature 81 °F 81 °F 88 °F (1980)
Min Temperature 72 °F 63 °F 52 °F (1970)
Degree Days  
Heating Degree Days 0 0  
Month to date heating degree days 0 0  
Since 1 July heating degree days 0 0  
Cooling Degree Days 12 7  
Month to date cooling degree days 87 56  
Year to date cooling degree days 322 273  
Growing Degree Days 26 (Base 50)    
Moisture  
Dew Point 71 °F    
Average Humidity 87    
Maximum Humidity 100    
Minimum Humidity 74    
Precipitation  
Precipitation 0.25 in 0.07 in 1.98 in (1949)
Month to date precipitation 2.08 0.59  
Year to date precipitation 6.13 3.46  
Snow  
Snow 0.00 in - - ()
Month to date snowfall 0.0  
Since 1 July snowfall 0.0  
Snow Depth 0.00 in    
Sea Level Pressure  
Sea Level Pressure 29.94 in    
Wind  
Wind Speed 10 mph (NNE)    
Max Wind Speed 18 mph    
Max Gust Speed 23 mph    
Visibility 9 miles    
Events Rain    
T = Trace of Precipitation, MM = Missing Value Source: NWS Daily Summary

Daily Weather History Graph

Daily Weather History Graph

Search for Another Location

Airport or City:

Trip Planner

Search our weather history database for the weather conditions in past years. The results will help you decide how hot, cold, wet, or windy it might be!

Date:

Astronomy

Feb. 08, 2014 Rise Set
Actual Time 6:59 AM HST 6:20 PM HST
Civil Twilight 6:36 AM HST 6:43 PM HST
Nautical Twilight 6:10 AM HST 7:09 PM HST
Astronomical Twilight 5:44 AM HST 7:35 PM HST
Moon 1:34 PM HST (2/8) 2:11 AM HST (2/8)
Length of Visible Light 12h 06m
Length of Day
11h 21m
Waxing Gibbous, 70% of the Moon is Illuminated
Feb 8
Waxing Gibbous
Feb 14
Full
Feb 22
Last Quarter
Feb 28
New
Mar 8
First Quarter

Hourly Weather History & Observations

Time (HST) Temp. Heat Index Dew Point Humidity Pressure Visibility Wind Dir Wind Speed Gust Speed Precip Events Conditions
12:10 AM 73.4 °F - 71.6 °F 94% 29.93 in 10.0 mi North 9.2 mph - N/A   Overcast
12:19 AM 73.4 °F - 71.6 °F 94% 29.93 in 10.0 mi North 9.2 mph - N/A   Overcast
12:29 AM 73.4 °F - 73.4 °F 100% 29.93 in 10.0 mi North 12.7 mph - N/A   Overcast
12:44 AM 73.4 °F - 73.4 °F 100% 29.93 in 10.0 mi NNE 11.5 mph - N/A   Overcast
12:54 AM 73.0 °F - 72.0 °F 96% 29.95 in 10.0 mi North 11.5 mph - N/A   Overcast
1:17 AM 73.4 °F - 71.6 °F 94% 29.93 in 10.0 mi North 11.5 mph - N/A   Overcast
1:25 AM 73.4 °F - 71.6 °F 94% 29.93 in 10.0 mi NNE 10.4 mph - N/A   Overcast
1:44 AM 73.4 °F - 71.6 °F 94% 29.92 in 10.0 mi North 8.1 mph - N/A   Overcast
1:50 AM 73.4 °F - 71.6 °F 94% 29.92 in 10.0 mi NNE 8.1 mph - N/A   Overcast
1:54 AM 73.0 °F - 72.0 °F 96% 29.94 in 9.0 mi NNE 9.2 mph - 0.00 in Rain Light Rain
2:06 AM 71.6 °F - 71.6 °F 100% 29.92 in 5.0 mi NNE 10.4 mph - 0.01 in Rain Rain
2:25 AM 71.6 °F - 71.6 °F 100% 29.92 in 4.0 mi North 9.2 mph - 0.06 in Rain Rain
2:33 AM 71.6 °F - 71.6 °F 100% 29.92 in 4.0 mi North 9.2 mph - 0.08 in Rain Rain
2:54 AM 72.0 °F - 72.0 °F 100% 29.93 in 4.0 mi NE 9.2 mph - 0.16 in Rain Rain
3:20 AM 71.6 °F - 71.6 °F 100% 29.91 in 7.0 mi NNE 5.8 mph - 0.03 in Rain Light Rain
3:27 AM 71.6 °F - 71.6 °F 100% 29.91 in 6.0 mi NNE 6.9 mph - 0.03 in Rain Light Rain
3:34 AM 71.6 °F - 71.6 °F 100% 29.91 in 4.0 mi NNE 9.2 mph - 0.06 in Rain Rain
3:51 AM 71.6 °F - 71.6 °F 100% 29.91 in 4.0 mi NNE 6.9 mph - 0.08 in Rain Light Rain
3:54 AM 72.0 °F - 72.0 °F 100% 29.93 in 5.0 mi NNE 5.8 mph - 0.08 in Rain Light Rain
4:10 AM 71.6 °F - 71.6 °F 100% 29.91 in 9.0 mi NNE 5.8 mph - 0.01 in   Overcast
4:19 AM 71.6 °F - 71.6 °F 100% 29.91 in 10.0 mi NNE 4.6 mph - 0.01 in   Overcast
4:54 AM 72.0 °F - 71.1 °F 97% 29.93 in 10.0 mi Calm Calm - 0.01 in   Overcast
5:11 AM 71.6 °F - 71.6 °F 100% 29.91 in 10.0 mi NE 4.6 mph - N/A   Overcast
5:24 AM 71.6 °F - 71.6 °F 100% 29.92 in 10.0 mi NE 5.8 mph - N/A   Overcast
5:45 AM 71.6 °F - 71.6 °F 100% 29.92 in 10.0 mi ENE 5.8 mph - N/A   Overcast
5:54 AM 72.0 °F - 70.0 °F 93% 29.94 in 10.0 mi ENE 5.8 mph - N/A   Mostly Cloudy
6:54 AM 72.0 °F - 71.1 °F 97% 29.95 in 10.0 mi NE 5.8 mph - N/A   Mostly Cloudy
7:54 AM 73.0 °F - 71.1 °F 93% 29.97 in 10.0 mi NNE 5.8 mph - N/A   Mostly Cloudy
8:54 AM 73.9 °F - 72.0 °F 93% 29.97 in 10.0 mi North 8.1 mph - N/A   Scattered Clouds
9:54 AM 77.0 °F - 73.0 °F 88% 29.99 in 10.0 mi NNE 11.5 mph - N/A   Scattered Clouds
10:54 AM 80.1 °F 84.2 °F 73.0 °F 79% 29.99 in 10.0 mi NNE 15.0 mph - N/A   Scattered Clouds
11:54 AM 81.0 °F 85.8 °F 73.0 °F 77% 29.98 in 10.0 mi NE 16.1 mph - N/A   Scattered Clouds
12:54 PM 80.1 °F 83.8 °F 72.0 °F 76% 29.95 in 10.0 mi NNE 15.0 mph - N/A   Scattered Clouds
1:54 PM 79.0 °F - 71.1 °F 77% 29.93 in 10.0 mi NNE 16.1 mph - N/A   Scattered Clouds
3:54 PM 79.0 °F - 73.0 °F 82% 29.91 in 10.0 mi North 12.7 mph - N/A   Mostly Cloudy
4:54 PM 77.0 °F - 72.0 °F 84% 29.92 in 10.0 mi NNE 13.8 mph - N/A   Mostly Cloudy
5:54 PM 77.0 °F - 68.0 °F 74% 29.94 in 10.0 mi NNE 11.5 mph - N/A   Mostly Cloudy
6:54 PM 75.0 °F - 70.0 °F 84% 29.96 in 10.0 mi NE 10.4 mph - N/A   Mostly Cloudy
7:54 PM 75.0 °F - 70.0 °F 84% 29.98 in 10.0 mi NE 11.5 mph - N/A   Mostly Cloudy
8:54 PM 75.0 °F - 70.0 °F 84% 29.99 in 10.0 mi NNE 9.2 mph - N/A   Scattered Clouds
9:54 PM 73.9 °F - 70.0 °F 87% 29.99 in 10.0 mi NE 9.2 mph - N/A   Partly Cloudy
10:54 PM 73.9 °F - 70.0 °F 87% 29.99 in 10.0 mi NE 9.2 mph - N/A   Clear
11:54 PM 73.9 °F - 70.0 °F 87% 29.98 in 10.0 mi NNE 15.0 mph - N/A   Clear